Tracking 17925 objects as of 19-February-2017
HD Live streaming from Space Station
objects crossing your sky now

CZ-2D DEB

Track CZ-2D DEB now!
10-day predictions


NORAD ID: 28742
Int'l Code: 2005-024F
Perigee: 521.0 km
Apogee: 684.1 km
Inclination: 97.7 °
Period: 96.6 minutes
Semi major axis: 6973 km
RCS: 0.0146 m2 (small)
Launch date: July 5, 2005
Source: People's Republic of China (PRC)
Launch site: Jiuquan Satellite Launch Center, China (JSC)

Note: This is SATELLITE DEBRIS
Your satellite tracking list
Your tracking list is empty





NASA's NSSDC Master Catalog

Two Line Element Set (TLE):
1 28742U 05024F   17049.89152750 +.00002307 +00000-0 +21162-3 0  9999
2 28742 097.6664 212.2308 0116969 251.6308 107.2161 14.90807836619053
Source of the keplerian elements: AFSPC